Regional Weather Roundup
Issued by NWS Grand Forks, ND

Home | Current Version | Previous Version | Text Only | Print | Product List | Glossary On
Versions: 1 2 3 4 5 6 7 8 9 10 11 12 13 14 15 16 17 18 19 20 21 22 23 24 25 26 27 28 29 30 31 32 33 34 35 36 37 38 39 40 41 42 43 44 45 46 47 48 49 50
000
ASUS43 KFGF 300731
RWRFGF
PRAIRIE TO PINES  WEATHER ROUNDUP
NATIONAL WEATHER SERVICE EASTERN NORTH DAKOTA/GRAND FORKS ND
200 AM CDT MON MAY 30 2016

 **SATELLITE DATA USED TO AUGMENT SKY COVER AT AUTOMATED STATIONS**
 *****  WEATHER ACROSS EASTERN NORTH DAKOTA  *****

CITY           SKY/WX    TMP DP  RH WIND       PRES   REMARKS
GRAND FORKS    CLEAR     50  45  83 S9        29.92R
GRAND FRKS AFB CLEAR     53  48  83 W5        29.92S
GRAND FRKS NWS   N/A     52 N/A N/A SW2         N/A
DEVILS LAKE    CLEAR     56  49  77 CALM      29.94S
FARGO          CLOUDY    61  49  64 S6        29.94S
WAHPETON ARPT  PTSUNNY   55  41  58 CALM      29.96S
$$

 ***** WEATHER ACROSS CENTRAL AND WESTERN NORTH DAKOTA  *****

CITY           SKY/WX    TMP DP  RH WIND       PRES   REMARKS
BISMARCK       CLEAR     56  51  84 SE5       29.95F
MINOT          CLEAR     56  45  66 S5        29.91F
JAMESTOWN      CLEAR     55  47  74 CALM      29.95F
MINOT AFB      CLEAR     53  44  70 SW6       29.90S
GARRISON         N/A     54  46  74 NE5       29.92F
WILLISTON      CLEAR     47  41  80 N3        29.92S
DICKINSON      CLEAR     51  46  83 S10       29.93F
HETTINGER      CLEAR     51  46  83 CALM      29.97F
$$

 *****  OTHER AIRPORT OBSERVATIONS IN OUR AREA  *****

CITY           SKY/WX    TMP DP  RH WIND       PRES   REMARKS
WALHALLA       FAIR      52  48  87 CALM      29.91S
GRAFTON AIRPOR FAIR      54  52  94 SW7       29.93S
VALLEY CITY AR FAIR      54  54 100 S5        29.97F
CANDO          FAIR      52  46  82 CALM      29.95S
CAVALIER APRT  FAIR      54  48  82 CALM      29.91R
GWINNER        FAIR      55  52  88 SW6       29.96S
ROLLA          FAIR      52  43  71 SW6       29.93S
 ***** THE ABOVE OBSERVATIONS ARE NON NWS ARE NOT QUALITY
       CONTROLLED AND MAY MIS-REPORT RAIN FOR SNOW...
$$

  *****  WEATHER ACROSS NORTHERN MINNESOTA  *****

CITY           SKY/WX    TMP DP  RH WIND       PRES   REMARKS
FLAG ISLAND    CLEAR     55  52  88 NW5       29.89S
WARROAD        CLEAR     50  46  87 SW3       29.93R
ROSEAU         CLEAR     52  46  82 CALM      29.92R
HALLOCK        CLEAR     54  52  94 S3        29.91R
THF RVR FALLS  CLEAR     54  46  76 S7        29.95S
BAUDETTE       CLEAR     48  46  93 SW5       29.91S FOG
WASKISH        CLEAR     52  50  93 CALM      29.94R
CROOKSTON      CLEAR     52  50  93 S5        29.94S
STEPHEN NDAWN    N/A     57  54  88 S8          N/A
GREENBUSH NDAW   N/A     48  48 100 S3          N/A
$$
  *****  WEATHER ACROSS CENTRAL AND WEST MINNESOTA  *****

CITY           SKY/WX    TMP DP  RH WIND       PRES   REMARKS
FOSSTON        CLEAR     52  50  93 SE3       29.96S
BEMIDJI        CLEAR     50  49  98 CALM      29.96S
PARK RAPIDS    CLEAR     52  49  89 CALM      29.97S
ELBOW LAKE     FAIR      57  49  74 SE7       29.98S
WADENA         CLEAR     54  46  76 CALM      29.98S
DETROIT LAKES  CLEAR     54  52  94 S3        29.99S
MOORHEAD       CLOUDY    63  48  59 SE5       29.95F
FERGUS FALLS   PTCLDY    61  48  63 SE5       29.94S
MORRIS MN      CLEAR     55  46  71 CALM      29.97S
STAPLES        CLEAR     52  50  93 CALM      29.98S
$$
  *****  WEATHER ELSEWHERE ACROSS MINNESOTA  *****

CITY           SKY/WX    TMP DP  RH WIND       PRES   REMARKS
DULUTH         CLEAR     51  48  89 W9        29.95R
INTRNTL FALLS  CLEAR     47  46  97 W3        29.90S
ELY            CLEAR     54  52  94 W5        29.92R
CLOQUET        CLEAR     55  48  76 W6        29.96S
WHEATON        CLEAR     61  48  63 CALM      29.97F
BRAINERD       CLEAR     51  49  92 SW5       29.98S
HIBBING        FOG       43  43 100 CALM      29.94S VSB 1/4
ALEXANDRIA     CLEAR     54  49  83 CALM      29.99F
SAINT CLOUD    CLEAR     52  51  97 CALM      29.98F
MINNEAPOLIS    CLEAR     64  57  78 CALM      29.99S
$$

  *****  WEATHER ACROSS SOUTH DAKOTA  *****

CITY           SKY/WX    TMP DP  RH WIND       PRES   REMARKS
SIOUX FALLS    CLOUDY    58  55  90 N3        29.99F
BROOKINGS      CLOUDY    58  53  84 CALM      30.00F
WATERTOWN      CLOUDY    59  50  72 SE5       29.99F
HURON          MOCLDY    59  53  80 S7        29.95F
SISSETON         N/A     57  46  66 S5        29.95F
ABERDEEN       CLEAR     56  50  80 CALM      29.96F
MITCHELL       CLOUDY    64  57  78 S6        29.98S
PIERRE         LGT RAIN  63  54  72 E10       29.94F
MOBRIDGE       CLEAR     58  54  86 SE7       29.92F
RAPID CITY     CLEAR     53  50  89 N6        29.96F
$$

  *****  SOME WEATHER IN NEARBY STATES *****

CITY           SKY/WX    TMP DP  RH WIND       PRES   REMARKS
GLASGOW MT     MOCLDY    56  45  66 SE8       29.89F
GREAT FALLS MT CLOUDY    49  43  80 SW10      29.97S
CHEYENNE WY    PTCLDY    50  39  66 SW6       30.12S
SCOTTSBLUFF NE CLOUDY    58  44  60 SE7       30.03S
OMAHA NE       CLOUDY    71  60  68 S5        29.99F
DES MOINES IA  CLOUDY    70  59  68 NE5       30.00F
DAVENPORT IA   CLOUDY    68  57  68 SW5       30.01F
CHICAGO IL     CLEAR     67  58  72 W7        30.00S
EAU CLAIRE WI  CLEAR     59  56  89 CALM      29.97F
LA CROSSE WI   PTCLDY    63  60  90 S5        29.98F
$$

  *****  SOME NATIONAL WEATHER *****

CITY           SKY/WX    TMP DP  RH WIND       PRES   REMARKS
LA GUARDIA NY  RAIN      70  70 100 S5        30.00F
RALEIGH NC     FOG       66  64  94 N6        30.00F VSB 1/2
ATLANTA GA     PTCLDY    69  62  78 SW5       30.03F
NEW ORLEANS LA PTCLDY    75  71  87 W5        30.05F
OKLAHOMA CITY  CLOUDY    68  61  78 NE10      30.05F
ALBUQUERQUE NM MOCLDY    64  16  15 SE9       30.08R
SALT LAKE CITY CLOUDY    61  47  59 N12       30.09S
LOS ANGELES CA PTCLDY    59  54  83 W8        30.01F
BOISE ID       CLEAR     64  38  38 W9        30.01R
SEATTLE WA     CLEAR     54  44  69 NE9       30.25S
$$

*** WEATHER ACROSS MANITOBA...SASKATCHEWAN AND ONTARIO ***
                ***ONTARIO***

CITY           SKY/WX    TMP DP  RH WIND       PRES   REMARKS
GERALDTON      DRIZZLE   50  50 100 W3        29.75S FOG
THUNDER BAY    CLOUDY    57  54  88 W7        29.82S
SIOUX LOOKOUT  PTCLDY    52  50  93 NW6       29.83S
TORONTO        PTCLDY    68  59  73 W14       29.89R
BIG TROUT LK   CLOUDY    41  34  75 NE7       29.89S
PICKLE LAKE    NOT AVBL
DRYDEN         CLOUDY    54  52  94 W6        29.86R FOG
KENORA         CLEAR     52  50  93 NW5       29.89S
$$
                *** MANITOBA***

CITY           SKY/WX    TMP DP  RH WIND       PRES   REMARKS
BRANDON        CLEAR     46  46 100 NE5       29.88F
DAUPHIN        CLEAR     46  45  93 W6        29.88S
ISLAND LAKE    LGT RAIN  45  45 100 CALM      29.95R
PILOT MOUND      N/A     50  46  87 S5          N/A
THE PAS        LGT RAIN  50  48  93 N5        29.92S FOG
THOMPSON       LGT RAIN  45  45 100 NE10      29.99S
WINNIPEG       CLEAR     52  50  93 NE6       29.90S
LYNN LAKE      CLOUDY    43  43 100 E8        30.02R FOG
CHURCHILL      CLOUDY    27  25  93 NE13      30.21S FOG     WCI  16
GILLAM         CLOUDY    34  30  86 NE10G21   30.05S
$$
                ***SASKATCHEWAN***

CITY           SKY/WX    TMP DP  RH WIND       PRES   REMARKS
ESTEVAN        NOT AVBL
KINDERSLEY     CLOUDY    54  45  71 E15       29.84S
LLOYDMINSTER   LGT RAIN  48  46  93 N12G17    29.92F
PRINCE ALBERT  PTCLDY    52  45  76 E10       29.93S
REGINA         CLEAR     50  45  81 SE3       29.88
YORKTON        CLEAR     48  45  87 N3        29.87R
N. BATTLEFORD  CLEAR     48  48 100 E10       29.92S
LA RONGE       PTCLDY    48  45  87 NE9       29.96R
SASKATOON      CLEAR     48  48 100 NE9       29.91R
SWIFT CURRENT  CLEAR     52  43  71 S9        29.86S
$$
NOTE: THESE ARE AUTOMATED STATIONS WITH LIMITED QUALITY CONTROL
      "FAIR" INDICATES FEW OR NO CLOUDS BELOW 12,000 FEET WITH NO
      SIGNIFICANT WEATHER AND/OR OBSTRUCTIONS TO VISIBILITY.
      SKY/WX - SKY CONDITION AND SIGNIFICANT WEATHER.
      TMP - AIR TEMPERATURE.    DP   - DEWPOINT TEMPERATURE.
      RH  - RELATIVE HUMIDITY.  PRES - PRESSURE.
      HX  - HEAT INDEX.         WCI  - WIND CHILL INDEX.
$




USA.gov is the U.S. government's official web portal to all federal, state and local government web resources and services.